DECAYED
Showing default

ICEYE-X26, 56961 (Decayed)

Orbit data source: Space-Track

ICEYE-X26, 56961 was a payload satellite owned by ICEYE US (US) in LEO that was launched on Mon, 12 Jun 2023 UTC via an FALCON 9 launch vehicle from the Air Force Western Test Range (AFWTR). Payload-class satellites include a variety of spacecraft equipped with specific instruments for various scientific and technological missions. These include communications satellites like Starlink; space stations such as the ISS; scientific satellites like the Hubble; Earth observation satellites from companies like Planet Labs, Umbra, and HawkEye 360; GPS; miniature CubeSats for education and research; and military/defense satellites.

Not visible in the next 10 days
Identifier
56961, 2023-084AF
Orbit
Decayed
Country
Flag of USUS
Related business
Manufacturer
ICEYE
Mission
Decayed Commercial Radar Imaging
Bus & Motor
ICEYE, Unknown motor
Mass
90 kg wet, 89 kg dry
Launch date (UTC)
2023-06-12 (3 years ago)
Launch vehicle
FALCON 9
Launch site
Air Force Western Test Range (AFWTR)
Object type
Payload
Rocket body
Debris
Shape & HBR
Box + 1 Pan, 1.6 m
Radar Cross Section
0.825 m², Medium (>0.1 m² and < 1m²)

Expand to show TLE details & history
Last TLE update: 2 months ago

TLE from 2 months ago
0 ICEYE-X26
1 56961U 23084AF  26151.53340426  .07996038  26164-5  98774-3 0  9990
2 56961  97.5464 315.9673 0014332 270.4834  89.4821 16.35905726166626
Epoch: 2026-05-31T12:48Z
TLE epoch observation values (Epoch: 2026-05-31T12:48:06.128Z)
Latitude
0.00005°
Longitude
-125.09195°
Altitude
179.886 km
Speed
7.798 km/s
True Right ascension
21h 03m 52s
True Declination
0° 00' 00"
Sunlit
Object was in full shadow at epoch
Visualization orbit readout
Latitude
Unknown
Longitude
Unknown
Altitude
Unknown
Speed
Unknown
Apparent Right ascension
Unknown
Apparent Declination
Unknown
Sunlit
N/A
Visualization observer readout
Local Sidereal Time
05:22:22
Azimuth
Unknown
Elevation
Unknown
Doppler factor
Unknown
Orbital elements
Apogee altitude
182.926 km
Perigee altitude
164.146 km
Semi-major axis
6,551.673 km
Eccentricity
0.00143
Inclination
97.5464°
RAAN
315.9673°
Arg. of periapsis
270.4834°
True anomaly
89.64633°
Mean anomaly
89.4821°
Eccentric anomaly
89.56421°
Mean motion
4.09275 °/min
Orbital period
87.96 mins
BSTAR
0.00098774
Loading maneuver chart data...
Computing Atmospheric mass density...

Documentation

Showing up to 5 results
|